GLOBALSTAR M072 [+]

Last updated on Fri Dec 29 2023 00:02:56 GMT+0000 (Coordinated Universal Time)

1 31574U 07020D 23362.50944767 -.00000100 00000+0 20305-4 0 9992 2 31574 52.0081 111.5034 0001171 128.6921 311.6264 12.62269574765209

Satellite not in orbit

GLOBALSTAR M072 [+]